Home   Weather   Amersfoort   Past weeks

Flag for Netherlands Past Weather in Amersfoort, Netherlands — Yesterday and Last 2 Weeks

Now
43 °F

Fog.


Feels Like: 37 °F
Forecast: 45 / 49 °F
Wind: 9 mph from South

Location: Deelen

Current Time: Dec 10, 2016 at 4:06:09 am

Latest Report: Dec 10, 2016 at 3:25 am


Visibility: 4 mi

Pressure: 30.21 "Hg

Humidity: 93%

Dew Point: 41 °F

Location of AmersfoortLocation

Past Weather in Amersfoort — Graph

°F

Amersfoort Temperature Yesterday

Maximum temperature yesterday: 52 °F (at 4:25 pm)
Minimum temperature yesterday: 45 °F (at 11:25 pm)
Average temperature yesterday: 48 °F

High & Low Weather Summary for the Past Weeks

 TemperatureHumidityPressure
High52 °F (Dec 9, 4:25 pm)100% (Nov 26, 4:55 am)30.57 "Hg (Nov 26, 4:55 am)
Low18 °F (Nov 30, 2:25 am)56% (Nov 29, 2:55 pm)30.07 "Hg (Nov 27, 1:55 am)
Average36 °F86%30.31 "Hg
* Reported Nov 25 2:25 am — Dec 10 2:55 am, Amersfoort, Weather by CustomWeather, © 2016

Note: Actual official high and low records may vary slightly from our data, if they occured in-between our weather recording intervals... More about our weather records

Advertising

Amersfoort Weather History for the Previous 24 Hours

Scroll right to see more
 ConditionsComfort  
Time TempWeatherWind HumidityBarometerVisibility
2:55 am
Sat, Dec 10
45 °FFog.10 mph87%30.21 "Hg4 mi
2:25 am45 °FFog.10 mph87%30.24 "Hg4 mi
1:55 am45 °FFog.9 mph93%30.24 "Hg4 mi
1:25 am45 °FFog.9 mph93%30.24 "Hg4 mi
12:55 am45 °FFog.9 mph93%30.24 "Hg4 mi
12:25 am45 °FFog.12 mph93%30.24 "Hg5 mi
11:55 pm
Fri, Dec 9
46 °FFog.12 mph87%30.27 "Hg5 mi
11:25 pm45 °FFog.12 mph93%30.27 "Hg6 mi
10:55 pm46 °FFog.10 mph87%30.27 "Hg5 mi
10:25 pm46 °FFog.9 mph87%30.27 "Hg5 mi
9:55 pm46 °FFog.13 mph87%30.27 "Hg6 mi
9:25 pm46 °FPassing clouds.10 mph87%30.27 "HgN/A
8:55 pm46 °FCool.9 mph93%30.27 "HgN/A
8:25 pm46 °FCool.10 mph93%30.27 "HgN/A
7:55 pm48 °FPassing clouds.10 mph87%30.27 "HgN/A
7:25 pm48 °FPassing clouds.9 mph87%30.27 "HgN/A
6:55 pm48 °FOvercast.13 mph87%30.27 "HgN/A
6:25 pm50 °FOvercast.13 mph88%30.30 "HgN/A
5:55 pm50 °FFog.14 mph88%30.30 "Hg6 mi
5:25 pm50 °FFog.13 mph94%30.30 "Hg6 mi
4:55 pm52 °FFog.12 mph88%30.30 "Hg5 mi
4:25 pm52 °FFog.12 mph88%30.30 "Hg4 mi
3:55 pm50 °FFog.10 mph94%30.30 "Hg4 mi
3:25 pm50 °FFog.10 mph94%30.30 "Hg3 mi
2:55 pm50 °FFog.9 mph94%30.30 "Hg2 mi
2:25 pm48 °FFog.9 mph100%30.30 "Hg1 mi
1:55 pm48 °FFog.12 mph100%30.30 "Hg1 mi
1:25 pm48 °FFog.10 mph100%30.33 "Hg2 mi
12:55 pm48 °FFog.10 mph100%30.33 "Hg1 mi
12:25 pm48 °FFog.12 mph94%30.33 "Hg2 mi
11:55 am48 °FFog.10 mph94%30.33 "Hg2 mi
11:25 am48 °FFog.10 mph94%30.33 "Hg2 mi
10:55 am46 °FFog.12 mph100%30.33 "Hg1 mi
10:25 am46 °FFog.10 mph100%30.33 "Hg1 mi
9:55 am46 °FFog.9 mph100%30.33 "Hg1 mi
9:25 am46 °FFog.10 mph100%30.33 "Hg2 mi
8:55 am46 °FFog.12 mph100%30.33 "Hg3 mi
8:25 am48 °FFog.10 mph87%30.33 "Hg4 mi
7:55 am48 °FFog.9 mph94%30.33 "Hg3 mi
7:25 am48 °FFog.9 mph94%30.33 "Hg3 mi
6:55 am48 °FFog.8 mph94%30.33 "Hg3 mi
6:25 am48 °FFog.8 mph94%30.33 "Hg3 mi
5:25 am48 °FFog.8 mph94%30.33 "Hg4 mi
4:55 am48 °FFog.9 mph94%30.30 "Hg4 mi
4:25 am48 °FFog.9 mph94%30.30 "Hg4 mi
Weather by CustomWeather, © 2016

See weather overviewHow to use our weather pages